Location: Rounton
(54.4000°N, 1.3500°W)
Time: 01:37:30
(UTC+00:00)

Explorer 7 - Pass Details

Date: 09 December 2021
Orbit: 483 x 674 km, 50.3° (Epoch: 18 January)

Event Time Altitude Azimuth Distance (km) Brightness Sun altitude
Exits shadow 04:00:09 13° 109° (ESE) 1,676 9.8 -35.4°
Drops below altitude 10° 04:00:54 10° 101° (E) 1,868 10.2 -35.3°
Sets 04:03:32 0° 84° (E) 2,727 11.4 -34.9°
